,,�O�C���x[��],����1,�O�C���x[��],����2,���ԉ��x [��],����3,���Ԏ��x [��],����4,�Q�����x [��],����5,���� [��],����6,�R�����i��󒲎��j���x�m���n,����7
2004/11/1,0:00,12.2,0,93.0,0,24.4,0,49.8,0,19.9,0,19.2,0,24,0
2004/11/1,0:15,12.2,0,92.9,0,24.3,0,49.5,0,19.9,0,19.2,0,23.9,0
2004/11/1,0:30,12.5,0,93.2,0,24.2,0,49.8,0,19.9,0,19.3,0,23.8,0
2004/11/1,0:45,12.8,0,93.2,0,24.1,0,49.9,0,19.9,0,19.4,0,23.7,0
2004/11/1,1:00,12.4,0,92.3,0,24.1,0,49.8,0,19.9,0,19.4,0,23.7,0
2004/11/1,1:15,12,0,92.3,0,24,0,49.6,0,19.9,0,19.5,0,23.6,0
2004/11/1,1:30,11.8,0,92.0,0,23.9,0,49.5,0,19.9,0,19.5,0,23.5,0
2004/11/1,1:45,12.1,0,92.8,0,23.8,0,49.6,0,19.8,0,19.6,0,23.4,0
2004/11/1,2:00,12.5,0,92.9,0,23.8,0,49.2,0,19.8,0,19.6,0,23.3,0
2004/11/1,2:15,12.3,0,92.6,0,23.7,0,49.2,0,19.8,0,19.7,0,23.3,0
2004/11/1,2:30,12.1,0,91.8,0,23.6,0,49,0,19.8,0,19.7,0,23.2,0
2004/11/1,2:45,11.8,0,92.0,0,23.5,0,49.2,0,19.7,0,19.8,0,23.1,0
2004/11/1,3:00,11.5,0,92.1,0,23.4,0,49,0,19.8,0,19.8,0,23,0
2004/11/1,3:15,11.8,0,92.7,0,23.4,0,49.1,0,19.7,0,19.9,0,23,0
2004/11/1,3:30,12.1,0,92.9,0,23.3,0,49,0,19.7,0,19.9,0,22.9,0
2004/11/1,3:45,11.9,0,92.4,0,23.2,0,48.9,0,19.7,0,20,0,22.9,0
2004/11/1,4:00,12.1,0,92.9,0,23.2,0,48.9,0,19.7,0,20,0,22.8,0
2004/11/1,4:15,12.6,0,92.5,0,23,0,48.7,0,19.7,0,20.1,0,22.7,0
2004/11/1,4:30,12.5,0,91.6,0,23,0,48.7,0,19.6,0,20.1,0,22.7,0
2004/11/1,4:45,11.9,0,91.8,0,22.9,0,48.7,0,19.6,0,20.2,0,22.6,0
2004/11/1,5:00,12.1,0,92.3,0,22.8,0,48.6,0,19.5,0,20.2,0,22.6,0
2004/11/1,5:15,12.3,0,92.5,0,22.8,0,47.9,0,19.5,0,20.3,0,22.5,0
2004/11/1,5:30,12.1,0,92.1,0,22.7,0,48.7,0,19.5,0,20.3,0,22.7,0
2004/11/1,5:45,12.1,0,92.3,0,22.8,0,49.2,0,19.5,0,18.7,0,22.9,0
2004/11/1,6:00,12.3,0,92.5,0,22.9,0,50.1,0,19.5,0,19.2,0,23,0
2004/11/1,6:15,12.2,0,92.2,0,23,0,50.2,0,20.5,0,19.2,0,23.2,0
2004/11/1,6:30,12.3,0,92.3,0,23,0,50.4,0,21.2,0,19.3,0,23.3,0
2004/11/1,6:45,12.6,0,92.4,0,23.1,0,50.6,0,21.8,0,18.3,0,23.8,0
2004/11/1,7:00,12.7,0,91.3,0,23.2,0,51.4,0,22.1,0,18.3,0,24.2,0
2004/11/1,7:15,13.3,0,91.3,0,23.1,0,51,0,21.7,0,17.7,0,24,0
2004/11/1,7:30,13.8,0,90.8,0,23.1,0,51,0,21.3,0,17.5,0,23.7,0
2004/11/1,7:45,14,0,90.1,0,23.1,0,50.7,0,21,0,17.7,0,23.5,0
2004/11/1,8:00,14.3,0,88.5,0,23.1,0,50.5,0,20.7,0,17.7,0,23.4,0
2004/11/1,8:15,14.8,0,88.6,0,23,0,50.4,0,20.6,0,17.8,0,23.3,0
2004/11/1,8:30,15.5,0,84.7,0,23,0,50.4,0,20.4,0,17.9,0,23.2,0
2004/11/1,8:45,15.9,0,84.3,0,23,0,50.4,0,20.3,0,18,0,23.2,0
2004/11/1,9:00,15.9,0,83.0,0,23,0,50.5,0,20.2,0,18,0,23.2,0
2004/11/1,9:15,16.2,0,81.9,0,22.9,0,50.6,0,20.1,0,18.1,0,23.1,0
2004/11/1,9:30,16.7,0,82.5,0,22.9,0,50.7,0,20,0,18.2,0,23.1,0
2004/11/1,9:45,17.1,0,79.7,0,22.9,0,50.8,0,19.9,0,18.2,0,23.1,0
2004/11/1,10:00,17.6,0,76.9,0,23,0,51,0,19.9,0,18.3,0,23.2,0
2004/11/1,10:15,17.7,0,76.6,0,23,0,51.2,0,19.9,0,18.4,0,23.2,0
2004/11/1,10:30,17.6,0,78.7,0,23,0,51.4,0,19.8,0,18.4,0,23.2,0
2004/11/1,10:45,17.9,0,78.8,0,23,0,51.6,0,19.8,0,18.5,0,23.2,0
2004/11/1,11:00,18.2,0,80.7,0,23,0,51.8,0,19.8,0,18.6,0,23.3,0
2004/11/1,11:15,18.7,0,77.9,0,23.1,0,52,0,19.7,0,18.6,0,23.3,0
2004/11/1,11:30,19.2,0,74.5,0,23.1,0,52.2,0,19.7,0,18.7,0,23.4,0
2004/11/1,11:45,19.4,0,70.5,0,23.2,0,52.3,0,19.7,0,18.8,0,23.4,0
2004/11/1,12:00,19.4,0,71.0,0,23.2,0,52.4,0,19.7,0,18.8,0,23.5,0
2004/11/1,12:15,19.2,0,72.3,0,23.3,0,52.4,0,19.7,0,18.9,0,23.5,0
2004/11/1,12:30,19,0,72.8,0,23.3,0,52.5,0,19.7,0,19,0,23.6,0
2004/11/1,12:45,18.5,0,75.9,0,23.3,0,52.5,0,19.7,0,19,0,23.6,0
2004/11/1,13:00,17.9,0,81.1,0,23.4,0,52.5,0,19.7,0,19.1,0,23.6,0
2004/11/1,13:15,17.6,0,83.5,0,23.4,0,52.6,0,19.7,0,19.2,0,23.5,0
2004/11/1,13:30,17.8,0,84.9,0,23.4,0,52.5,0,19.7,0,19.2,0,23.5,0
2004/11/1,13:45,18.1,0,82.3,0,23.4,0,52.6,0,19.7,0,19.3,0,23.5,0
2004/11/1,14:00,18.4,0,81.0,0,23.4,0,52.7,0,19.7,0,19.4,0,23.6,0
2004/11/1,14:15,18.5,0,78.7,0,23.5,0,52.9,0,19.7,0,19.4,0,23.7,0
2004/11/1,14:30,18.5,0,77.3,0,23.5,0,52.9,0,19.7,0,19.5,0,23.7,0
2004/11/1,14:45,18.4,0,77.2,0,23.5,0,53.2,0,19.7,0,19.5,0,23.7,0
2004/11/1,15:00,18.2,0,78.7,0,23.6,0,53.1,0,19.7,0,19.6,0,23.7,0
2004/11/1,15:15,17.9,0,80.9,0,23.6,0,53.1,0,19.7,0,19.7,0,23.7,0
2004/11/1,15:30,17.6,0,83.8,0,23.6,0,53.2,0,19.7,0,19.7,0,23.8,0
2004/11/1,15:45,17.2,0,86.6,0,23.6,0,53.3,0,19.8,0,19.8,0,23.8,0
2004/11/1,16:00,17.2,0,85.1,0,23.7,0,53.5,0,19.8,0,19.8,0,23.8,0
2004/11/1,16:15,17.1,0,85.0,0,23.7,0,53.8,0,19.8,0,19.9,0,23.9,0
2004/11/1,16:30,16.9,0,85.6,0,23.8,0,54.4,0,19.8,0,20,0,23.9,0
2004/11/1,16:45,16.5,0,87.6,0,23.9,0,54.5,0,19.8,0,20,0,24,0
2004/11/1,17:00,16.5,0,87.3,0,24,0,54.6,0,19.8,0,20.1,0,24.1,0
2004/11/1,17:15,16.4,0,87.7,0,24.1,0,54.6,0,19.8,0,20.2,0,24.2,0
2004/11/1,17:30,16.4,0,87.7,0,24.2,0,54.5,0,19.7,0,18.8,0,24.5,0
2004/11/1,17:45,16.2,0,88.9,0,24.2,0,53.6,0,19.7,0,18.4,0,24.6,0
2004/11/1,18:00,16.5,0,87.2,0,24.1,0,53.4,0,19.7,0,18.4,0,24.5,0
2004/11/1,18:15,16.2,0,88.0,0,24.1,0,53.2,0,19.7,0,18.5,0,24.3,0
2004/11/1,18:30,16,0,89.9,0,24.1,0,53.3,0,19.7,0,18.5,0,24.1,0
2004/11/1,18:45,15.6,0,90.8,0,24.1,0,53.5,0,19.7,0,18.6,0,24.1,0
2004/11/1,19:00,15.7,0,91.2,0,24.1,0,53.8,0,19.7,0,18.2,0,24.3,0
2004/11/1,19:15,15.8,0,91.1,0,24.2,0,53.9,0,20.2,0,18.3,0,24.9,0
2004/11/1,19:30,15.7,0,91.3,0,24.2,0,54,0,21.1,0,18.4,0,25.3,0
2004/11/1,19:45,15.7,0,91.6,0,24.3,0,54,0,21.8,0,18.5,0,25.3,0
2004/11/1,20:00,15.6,0,91.6,0,24.3,0,54,0,22.2,0,18.5,0,25.3,0
2004/11/1,20:15,15.7,0,91.6,0,24.3,0,54.1,0,22.6,0,18.6,0,25.3,0
2004/11/1,20:30,15.6,0,91.4,0,24.4,0,54,0,22.9,0,18.7,0,25.2,0
2004/11/1,20:45,15.5,0,91.6,0,24.4,0,53.8,0,23.2,0,18.8,0,25.1,0
2004/11/1,21:00,15.5,0,91.7,0,24.4,0,53.7,0,23.1,0,18.8,0,24.9,0
2004/11/1,21:15,15.3,0,92.0,0,24.4,0,53.8,0,22.6,0,18.9,0,24.8,0
2004/11/1,21:30,15.5,0,92.4,0,24.3,0,54,0,22.3,0,19,0,24.8,0
2004/11/1,21:45,15.3,0,92.3,0,24.4,0,54.5,0,22.1,0,19,0,24.8,0
2004/11/1,22:00,15.3,0,92.2,0,24.4,0,54.4,0,22,0,19.1,0,24.8,0
2004/11/1,22:15,15.3,0,92.4,0,24.4,0,54.2,0,21.8,0,19.2,0,24.8,0
2004/11/1,22:30,15.1,0,92.5,0,24.4,0,54,0,21.7,0,19.3,0,24.7,0
2004/11/1,22:45,15.1,0,92.4,0,24.4,0,53.9,0,21.6,0,19.3,0,24.7,0
2004/11/1,23:00,14.9,0,92.7,0,24.5,0,53.6,0,21.5,0,19.4,0,24.7,0
2004/11/1,23:15,15.1,0,93.0,0,24.4,0,53.4,0,21.4,0,19.5,0,24.6,0
2004/11/1,23:30,15.3,0,92.5,0,24.4,0,53.3,0,21.3,0,19.5,0,24.5,0
2004/11/1,23:45,15.1,0,91.9,0,24.3,0,53.2,0,21.2,0,19.6,0,24.5,0
2004/11/2,0:00,14.7,0,92.0,0,24.3,0,53.1,0,21.2,0,19.7,0,24.4,0
2004/11/2,0:15,14.6,0,92.5,0,24.2,0,53.2,0,21.1,0,19.7,0,24.4,0
2004/11/2,0:30,14.6,0,92.4,0,24.2,0,53.2,0,21.1,0,19.8,0,24.3,0
2004/11/2,0:45,14.3,0,92.2,0,24.1,0,53.1,0,21.1,0,19.8,0,24.2,0
2004/11/2,1:00,14.3,0,92.4,0,24.1,0,53.1,0,21.1,0,19.9,0,24.2,0
2004/11/2,1:15,14.5,0,92.3,0,24,0,52.9,0,21,0,20,0,24.1,0
2004/11/2,1:30,14.4,0,92.4,0,24,0,52.9,0,21,0,20,0,24,0
2004/11/2,1:45,14.3,0,92.4,0,23.9,0,52.8,0,21,0,20.1,0,24,0
2004/11/2,2:00,14.2,0,92.5,0,23.9,0,52.7,0,20.9,0,20.1,0,23.9,0
2004/11/2,2:15,14.4,0,92.7,0,23.8,0,52.6,0,20.9,0,20.2,0,23.9,0
2004/11/2,2:30,14.2,0,92.5,0,23.8,0,52.5,0,20.8,0,20.3,0,23.8,0
2004/11/2,2:45,13.9,0,92.4,0,23.7,0,52.5,0,20.8,0,20.3,0,23.8,0
2004/11/2,3:00,13.7,0,92.9,0,23.7,0,52.4,0,20.7,0,20.4,0,23.7,0
2004/11/2,3:15,13.6,0,93.0,0,23.6,0,52.4,0,20.7,0,20.4,0,23.7,0
2004/11/2,3:30,13.5,0,93.1,0,23.6,0,52.3,0,20.6,0,20.5,0,23.6,0
2004/11/2,3:45,13.7,0,93.3,0,23.5,0,52.3,0,20.6,0,20.5,0,23.5,0
2004/11/2,4:00,14.2,0,93.7,0,23.5,0,52.1,0,20.6,0,20.6,0,23.5,0
2004/11/2,4:15,15.1,0,93.0,0,23.5,0,52.1,0,20.6,0,20.7,0,23.4,0
2004/11/2,4:30,15.4,0,90.8,0,23.4,0,52.1,0,20.5,0,20.7,0,23.4,0
2004/11/2,4:45,15.4,0,91.0,0,23.4,0,52,0,20.5,0,20.8,0,23.3,0
2004/11/2,5:00,15.4,0,91.5,0,23.3,0,52,0,20.5,0,20.8,0,23.3,0
2004/11/2,5:15,15.6,0,90.1,0,23.3,0,52.2,0,20.5,0,20.8,0,23.3,0
2004/11/2,5:30,15.8,0,88.5,0,23.3,0,52.9,0,20.5,0,20.9,0,23.4,0
2004/11/2,5:45,15.8,0,87.8,0,23.4,0,53.2,0,20.5,0,20.9,0,23.5,0
2004/11/2,6:00,15.9,0,87.8,0,23.4,0,53.9,0,20.5,0,21,0,23.6,0
2004/11/2,6:15,16,0,87.3,0,23.4,0,53.7,0,21.8,0,21,0,23.5,0
2004/11/2,6:30,16.3,0,86.2,0,23.4,0,53.6,0,22.5,0,18.9,0,23.5,0
2004/11/2,6:45,16.3,0,86.3,0,23.4,0,54,0,22.8,0,19.1,0,23.9,0
2004/11/2,7:00,16.4,0,85.8,0,23.4,0,54.3,0,23.1,0,19.1,0,23.9,0
2004/11/2,7:15,16.4,0,86.0,0,23.4,0,54.3,0,22.7,0,18,0,23.9,0
2004/11/2,7:30,16.6,0,85.2,0,23.5,0,54.4,0,22.2,0,17.8,0,23.8,0
2004/11/2,7:45,16.7,0,84.7,0,23.5,0,54.5,0,21.8,0,17.9,0,23.8,0
2004/11/2,8:00,16.9,0,83.2,0,23.5,0,54.4,0,21.6,0,18,0,23.7,0
2004/11/2,8:15,16.7,0,85.5,0,23.5,0,54.3,0,21.4,0,18,0,23.7,0
2004/11/2,8:30,16.4,0,87.9,0,23.5,0,54.2,0,21.2,0,18.1,0,23.6,0
2004/11/2,8:45,16.7,0,86.1,0,23.5,0,54.2,0,21.1,0,18.1,0,23.6,0
2004/11/2,9:00,16.5,0,87.5,0,23.4,0,54.1,0,21,0,18.2,0,23.6,0
2004/11/2,9:15,16.6,0,85.6,0,23.4,0,54.1,0,20.9,0,18.3,0,23.6,0
2004/11/2,9:30,16.8,0,84.6,0,23.4,0,54.1,0,20.8,0,18.4,0,23.6,0
2004/11/2,9:45,17.5,0,81.3,0,23.4,0,54.1,0,20.8,0,18.4,0,23.6,0
2004/11/2,10:00,18.6,0,76.3,0,23.5,0,54.4,0,20.7,0,18.5,0,23.7,0
2004/11/2,10:15,19.1,0,74.6,0,23.6,0,54.7,0,20.8,0,18.6,0,24,0
2004/11/2,10:30,19.5,0,70.7,0,23.7,0,55.4,0,20.8,0,18.7,0,24.2,0
2004/11/2,10:45,19.7,0,69.4,0,23.9,0,55.8,0,20.8,0,18.7,0,24.4,0
2004/11/2,11:00,20.2,0,68.0,0,24,0,56.3,0,20.8,0,18.8,0,24.6,0
2004/11/2,11:15,20.1,0,67.8,0,24.1,0,56.4,0,20.8,0,18.9,0,24.7,0
2004/11/2,11:30,19.6,0,67.5,0,24.2,0,56.5,0,20.8,0,19,0,24.8,0
2004/11/2,11:45,19.9,0,67.5,0,24.3,0,56.6,0,20.8,0,19,0,24.9,0
2004/11/2,12:00,19.8,0,68.8,0,24.4,0,56.5,0,20.8,0,19.1,0,25,0
2004/11/2,12:15,17.9,0,74.4,0,24.5,0,56.5,0,20.8,0,19.2,0,25.1,0
2004/11/2,12:30,17.2,0,76.3,0,24.5,0,56.5,0,20.8,0,19.3,0,25.1,0
2004/11/2,12:45,17.7,0,74.6,0,24.6,0,56.3,0,20.8,0,19.4,0,25.2,0
2004/11/2,13:00,18.8,0,72.3,0,24.7,0,56.1,0,20.8,0,19.4,0,25.2,0
2004/11/2,13:15,18,0,79.4,0,24.7,0,56,0,20.8,0,19.5,0,25.3,0
2004/11/2,13:30,17.1,0,83.9,0,24.8,0,56,0,20.8,0,19.6,0,25.4,0
2004/11/2,13:45,17.6,0,80.7,0,24.8,0,56,0,20.8,0,19.7,0,25.4,0
2004/11/2,14:00,17.5,0,78.1,0,24.8,0,55.9,0,20.8,0,19.7,0,25.4,0
2004/11/2,14:15,18.3,0,78.2,0,24.8,0,55.8,0,20.8,0,19.8,0,25.4,0
2004/11/2,14:30,19,0,71.5,0,24.9,0,55.5,0,20.8,0,19.9,0,25.4,0
2004/11/2,14:45,18.7,0,69.7,0,25,0,55.4,0,20.9,0,20,0,25.5,0
2004/11/2,15:00,19,0,66.3,0,25,0,55.3,0,20.9,0,20.1,0,25.5,0
2004/11/2,15:15,18.7,0,69.3,0,25.1,0,55.1,0,20.9,0,20.2,0,25.5,0
2004/11/2,15:30,17.9,0,72.7,0,25.1,0,55,0,20.9,0,20.2,0,25.6,0
2004/11/2,15:45,16.6,0,79.1,0,25.1,0,55,0,20.9,0,20.3,0,25.6,0
2004/11/2,16:00,16.4,0,80.2,0,25.1,0,54.9,0,20.9,0,20.4,0,25.5,0
2004/11/2,16:15,16.2,0,81.7,0,25,0,54.8,0,20.8,0,20.5,0,25.5,0
2004/11/2,16:30,15.6,0,86.5,0,25,0,54.6,0,20.8,0,20.6,0,25.4,0
2004/11/2,16:45,15.5,0,86.8,0,25.1,0,54.6,0,20.8,0,20.7,0,25.4,0
2004/11/2,17:00,15.4,0,86.8,0,25.1,0,54.7,0,20.8,0,20.7,0,25.3,0
2004/11/2,17:15,15.3,0,87.6,0,25.1,0,54.7,0,20.8,0,20.8,0,25.3,0
2004/11/2,17:30,15.1,0,89.9,0,25.1,0,54.6,0,20.7,0,19.1,0,25.3,0
2004/11/2,17:45,15,0,90.4,0,25.1,0,54.3,0,20.7,0,19.2,0,25.7,0
2004/11/2,18:00,15.3,0,88.0,0,25,0,53.9,0,20.7,0,19.2,0,26,0
2004/11/2,18:15,15.2,0,89.4,0,25,0,53.4,0,20.6,0,19.3,0,26.1,0
2004/11/2,18:30,15.1,0,89.9,0,24.9,0,53,0,20.6,0,19.4,0,25.6,0
2004/11/2,18:45,15.1,0,89.1,0,24.9,0,53.4,0,20.5,0,18.4,0,25.2,0
2004/11/2,19:00,15.2,0,88.6,0,24.9,0,53.6,0,20.5,0,18.6,0,25.2,0
2004/11/2,19:15,15,0,89.3,0,25,0,54,0,20.5,0,18.2,0,25.3,0
2004/11/2,19:30,14.8,0,90.2,0,25,0,54.6,0,20.5,0,18.2,0,25.4,0
2004/11/2,19:45,14.8,0,90.2,0,25.1,0,54.6,0,20.5,0,18.3,0,25.4,0
2004/11/2,20:00,14.8,0,90.4,0,25.1,0,54.4,0,20.5,0,18.4,0,25.3,0
2004/11/2,20:15,14.7,0,90.5,0,25,0,54.1,0,20.6,0,18.5,0,25.2,0
2004/11/2,20:30,14.7,0,90.7,0,25,0,53.9,0,20.6,0,18.6,0,25.1,0
2004/11/2,20:45,14.5,0,91.4,0,25,0,53.9,0,20.6,0,18.6,0,25,0
2004/11/2,21:00,14.3,0,91.7,0,24.9,0,53.5,0,20.6,0,18.7,0,24.9,0
2004/11/2,21:15,14,0,91.7,0,24.9,0,53.6,0,20.7,0,18.8,0,24.9,0
2004/11/2,21:30,13.3,0,91.5,0,24.9,0,53.6,0,20.8,0,18.9,0,24.9,0
2004/11/2,21:45,13.7,0,92.8,0,24.9,0,53.5,0,20.8,0,19,0,24.9,0
2004/11/2,22:00,13.7,0,92.7,0,24.9,0,53.5,0,20.8,0,19,0,24.9,0
2004/11/2,22:15,13.2,0,92.3,0,24.9,0,53.4,0,20.8,0,19.1,0,24.8,0
2004/11/2,22:30,13.4,0,92.9,0,24.8,0,53.3,0,20.8,0,19.2,0,24.8,0
2004/11/2,22:45,13.5,0,92.8,0,24.8,0,53.1,0,20.8,0,19.3,0,24.8,0
2004/11/2,23:00,13.5,0,92.9,0,24.8,0,53,0,20.8,0,19.3,0,24.7,0
2004/11/2,23:15,13.5,0,92.7,0,24.8,0,52.9,0,20.8,0,19.4,0,24.7,0
2004/11/2,23:30,13.6,0,92.8,0,24.7,0,52.6,0,20.8,0,19.5,0,24.6,0
2004/11/2,23:45,13.6,0,92.9,0,24.6,0,52.9,0,20.8,0,19.6,0,24.5,0
2004/11/3,0:00,13.5,0,92.6,0,24.6,0,52.8,0,20.7,0,19.6,0,24.5,0
2004/11/3,0:15,13.5,0,92.5,0,24.5,0,52.8,0,20.7,0,19.7,0,24.4,0
2004/11/3,0:30,13.4,0,92.5,0,24.4,0,52.8,0,20.7,0,19.8,0,24.3,0
2004/11/3,0:45,13.3,0,92.6,0,24.4,0,52.8,0,20.7,0,19.8,0,24.3,0
2004/11/3,1:00,13.3,0,92.6,0,24.3,0,52.8,0,20.7,0,19.9,0,24.2,0
2004/11/3,1:15,13.3,0,92.7,0,24.3,0,52.9,0,20.7,0,19.9,0,24.2,0
2004/11/3,1:30,13.3,0,92.7,0,24.2,0,52.8,0,20.7,0,20,0,24.1,0
2004/11/3,1:45,13.3,0,92.6,0,24.1,0,52.6,0,20.7,0,20.1,0,24,0
2004/11/3,2:00,13.3,0,92.5,0,24.1,0,52.6,0,20.7,0,20.1,0,24,0
2004/11/3,2:15,13.2,0,92.3,0,24,0,52.6,0,20.6,0,20.2,0,23.9,0
2004/11/3,2:30,13.1,0,92.5,0,23.9,0,52.5,0,20.6,0,20.3,0,23.8,0
2004/11/3,2:45,13.1,0,92.6,0,23.9,0,52.5,0,20.6,0,20.3,0,23.8,0
2004/11/3,3:00,13,0,92.8,0,23.8,0,52.4,0,20.6,0,20.4,0,23.7,0
2004/11/3,3:15,13,0,92.5,0,23.8,0,52.3,0,20.6,0,20.4,0,23.6,0
2004/11/3,3:30,12.9,0,92.1,0,23.7,0,52.4,0,20.5,0,20.5,0,23.6,0
2004/11/3,3:45,12.9,0,92.2,0,23.6,0,52.3,0,20.5,0,20.6,0,23.5,0
2004/11/3,4:00,12.9,0,91.9,0,23.6,0,52.2,0,20.5,0,20.6,0,23.4,0
2004/11/3,4:15,12.8,0,91.1,0,23.5,0,52.3,0,20.4,0,20.7,0,23.4,0
2004/11/3,4:30,12.8,0,91.6,0,23.5,0,52.2,0,20.4,0,20.7,0,23.3,0
2004/11/3,4:45,12.8,0,91.2,0,23.4,0,52.3,0,20.4,0,20.8,0,23.2,0
2004/11/3,5:00,12.8,0,91.4,0,23.3,0,52.1,0,20.3,0,20.8,0,23.2,0
2004/11/3,5:15,12.8,0,91.2,0,23.3,0,52.1,0,20.3,0,20.9,0,23.1,0
2004/11/3,5:30,12.7,0,91.4,0,23.2,0,52.1,0,20.3,0,20.9,0,23,0
2004/11/3,5:45,12.7,0,91.5,0,23.2,0,52,0,20.2,0,20.9,0,23,0
2004/11/3,6:00,12.7,0,91.3,0,23.1,0,52,0,20.2,0,21,0,22.9,0
2004/11/3,6:15,12.6,0,91.2,0,23,0,52,0,20.2,0,21,0,22.9,0
2004/11/3,6:30,12.7,0,91.4,0,23,0,52,0,20.1,0,21.1,0,22.8,0
2004/11/3,6:45,12.6,0,91.3,0,22.9,0,52,0,20.1,0,21.1,0,22.7,0
2004/11/3,7:00,12.8,0,91.1,0,22.9,0,52,0,20.1,0,21.1,0,22.6,0
2004/11/3,7:15,12.9,0,90.7,0,22.8,0,51.9,0,20,0,21.2,0,22.5,0
2004/11/3,7:30,13.1,0,90.1,0,22.7,0,51.5,0,20,0,21.2,0,22.5,0
2004/11/3,7:45,13.3,0,90.1,0,22.9,0,51.6,0,20,0,21.2,0,22.5,0
2004/11/3,8:00,13.5,0,90.3,0,23.6,0,49.9,0,19.9,0,18.6,0,23,0
2004/11/3,8:15,13.5,0,89.1,0,24.1,0,49.2,0,19.9,0,19.1,0,23.5,0
2004/11/3,8:30,13.8,0,88.2,0,24.4,0,48.9,0,19.8,0,19.1,0,24.7,0
2004/11/3,8:45,14.1,0,87.6,0,24.4,0,49.5,0,19.8,0,19.2,0,25.4,0
2004/11/3,9:00,14.1,0,87.6,0,24.7,0,49.3,0,19.7,0,18.3,0,25.7,0
2004/11/3,9:15,14.5,0,86.8,0,24.6,0,50,0,19.8,0,18.3,0,25.3,0
2004/11/3,9:30,14.8,0,85.7,0,24.3,0,51.1,0,19.8,0,17.9,0,24.8,0
2004/11/3,9:45,14.9,0,85.3,0,24.3,0,51.5,0,19.8,0,18,0,24.5,0
2004/11/3,10:00,15.1,0,84.2,0,24.3,0,52,0,19.8,0,18,0,24.4,0
2004/11/3,10:15,15.4,0,83.6,0,24.2,0,52.3,0,19.7,0,18.1,0,24.3,0
2004/11/3,10:30,15.4,0,83.9,0,24.1,0,52.2,0,19.7,0,18.2,0,24.2,0
2004/11/3,10:45,15.6,0,82.4,0,24.1,0,52.4,0,19.7,0,18.3,0,24.1,0
2004/11/3,11:00,16,0,80.9,0,24,0,52.3,0,19.7,0,18.3,0,24.1,0
2004/11/3,11:15,16.7,0,74.5,0,24,0,52.1,0,19.7,0,18.4,0,24,0
2004/11/3,11:30,16.9,0,72.9,0,24,0,52.2,0,19.7,0,18.5,0,24,0
2004/11/3,11:45,16.8,0,74.4,0,23.9,0,52.4,0,19.6,0,18.6,0,24,0
2004/11/3,12:00,16.8,0,76.6,0,23.9,0,52.5,0,19.6,0,18.6,0,24,0
2004/11/3,12:15,16.7,0,75.2,0,23.9,0,52.7,0,19.6,0,18.7,0,24,0
2004/11/3,12:30,16.9,0,72.3,0,23.9,0,52.8,0,19.7,0,18.8,0,24,0
2004/11/3,12:45,16.7,0,73.2,0,23.9,0,52.8,0,19.7,0,18.8,0,24,0
2004/11/3,13:00,16.5,0,74.1,0,23.9,0,52.8,0,19.7,0,18.9,0,24,0
2004/11/3,13:15,17.2,0,69.6,0,23.9,0,52.9,0,19.7,0,19,0,24,0
2004/11/3,13:30,17.4,0,67.7,0,23.9,0,52.9,0,19.7,0,19.1,0,24,0
2004/11/3,13:45,17.6,0,66.3,0,23.9,0,53,0,19.7,0,19.1,0,24,0
2004/11/3,14:00,17.2,0,68.1,0,23.9,0,53.3,0,19.8,0,19.2,0,24.1,0
2004/11/3,14:15,17.1,0,69.2,0,24,0,53.2,0,19.8,0,19.3,0,24.1,0
2004/11/3,14:30,16.6,0,70.9,0,24,0,53.2,0,19.8,0,19.3,0,24.1,0
2004/11/3,14:45,16,0,77.0,0,24,0,53.2,0,19.8,0,19.4,0,24.1,0
2004/11/3,15:00,15.6,0,79.2,0,23.9,0,53.2,0,19.8,0,19.5,0,24,0
2004/11/3,15:15,15.1,0,83.5,0,23.9,0,53.1,0,19.8,0,19.5,0,24,0
2004/11/3,15:30,14.7,0,86.5,0,23.9,0,53,0,19.8,0,19.6,0,24,0
2004/11/3,15:45,14.6,0,88.0,0,23.9,0,52.9,0,19.8,0,19.7,0,23.9,0
2004/11/3,16:00,14.5,0,88.7,0,23.9,0,52.8,0,19.8,0,19.7,0,23.9,0
2004/11/3,16:15,14.3,0,88.9,0,23.9,0,52.8,0,19.8,0,19.8,0,23.8,0
2004/11/3,16:30,14.2,0,88.4,0,23.8,0,52.7,0,19.8,0,19.9,0,23.7,0
2004/11/3,16:45,14.1,0,87.9,0,23.8,0,52.6,0,19.8,0,19.9,0,23.7,0
2004/11/3,17:00,13.8,0,89.2,0,23.7,0,52.6,0,19.8,0,20,0,23.6,0
2004/11/3,17:15,13.6,0,89.1,0,23.7,0,52.5,0,19.7,0,20,0,23.6,0
2004/11/3,17:30,13.2,0,90.4,0,23.7,0,52.5,0,19.7,0,20.1,0,23.5,0
2004/11/3,17:45,12.9,0,90.8,0,23.6,0,52.5,0,19.7,0,20.2,0,23.4,0
2004/11/3,18:00,12.7,0,91.6,0,23.6,0,52.4,0,19.7,0,20.2,0,23.4,0
2004/11/3,18:15,12.8,0,91.9,0,23.5,0,52.4,0,19.7,0,20.3,0,23.3,0
2004/11/3,18:30,12.8,0,91.9,0,23.4,0,52.5,0,19.6,0,20.3,0,23.2,0
2004/11/3,18:45,12.8,0,91.7,0,23.4,0,52.5,0,19.6,0,20.4,0,23.1,0
2004/11/3,19:00,12.9,0,91.5,0,23.3,0,52.3,0,19.6,0,20.4,0,23.1,0
2004/11/3,19:15,12.8,0,91.5,0,23.3,0,52.4,0,19.6,0,20.5,0,23,0
2004/11/3,19:30,12.8,0,91.2,0,23.2,0,52.4,0,19.5,0,20.5,0,22.9,0
2004/11/3,19:45,12.9,0,88.1,0,23.2,0,52.3,0,19.5,0,20.6,0,22.9,0
2004/11/3,20:00,12.9,0,86.6,0,23.1,0,52.4,0,19.5,0,20.6,0,22.8,0
2004/11/3,20:15,12.8,0,87.1,0,23,0,52.3,0,19.5,0,20.7,0,22.8,0
2004/11/3,20:30,12.6,0,88.2,0,23,0,52.3,0,19.4,0,18.4,0,22.8,0
2004/11/3,20:45,12.4,0,90.1,0,23,0,52.3,0,19.4,0,18.4,0,22.7,0
2004/11/3,21:00,12.3,0,90.7,0,23,0,52.1,0,19.5,0,18.5,0,22.7,0
2004/11/3,21:15,12.2,0,90.4,0,22.9,0,52.3,0,19.5,0,18.5,0,22.6,0
2004/11/3,21:30,12.1,0,91.4,0,22.9,0,52.1,0,19.5,0,18.6,0,22.6,0
2004/11/3,21:45,12,0,91.7,0,22.9,0,52.3,0,19.6,0,18.7,0,22.6,0
2004/11/3,22:00,12,0,90.8,0,22.9,0,52.3,0,19.7,0,18.7,0,22.6,0
2004/11/3,22:15,12,0,91.1,0,22.8,0,52.3,0,19.7,0,18.8,0,22.5,0
2004/11/3,22:30,11.9,0,91.8,0,22.7,0,52.3,0,19.7,0,18.9,0,22.4,0
2004/11/3,22:45,11.8,0,92.1,0,22.7,0,52.1,0,19.7,0,18.9,0,22.4,0
2004/11/3,23:00,11.7,0,92.0,0,22.6,0,52,0,19.7,0,19,0,22.3,0
2004/11/3,23:15,11.7,0,91.8,0,22.6,0,52.2,0,19.7,0,19,0,22.2,0
2004/11/3,23:30,11.7,0,91.8,0,22.5,0,52,0,19.7,0,19.1,0,22.1,0
2004/11/3,23:45,11.6,0,92.0,0,22.4,0,52,0,19.7,0,19.2,0,22,0
2004/11/4,0:00,11.6,0,91.3,0,22.4,0,52,0,19.6,0,19.2,0,22,0
2004/11/4,0:15,11.7,0,92.0,0,22.3,0,51.9,0,19.7,0,19.3,0,21.9,0
2004/11/4,0:30,11.6,0,92.1,0,22.3,0,52,0,19.7,0,19.3,0,21.9,0
2004/11/4,0:45,11.6,0,91.6,0,22.2,0,52,0,19.6,0,19.4,0,21.8,0
2004/11/4,1:00,11.6,0,91.8,0,22.1,0,51.9,0,19.6,0,19.4,0,21.7,0
2004/11/4,1:15,11.6,0,91.6,0,22.1,0,51.9,0,19.6,0,19.5,0,21.6,0
2004/11/4,1:30,11.6,0,92.0,0,22,0,51.8,0,19.6,0,19.5,0,21.6,0
2004/11/4,1:45,11.6,0,91.5,0,22,0,51.8,0,19.5,0,19.6,0,21.5,0
2004/11/4,2:00,11.6,0,91.1,0,21.9,0,51.7,0,19.5,0,19.6,0,21.5,0
2004/11/4,2:15,11.5,0,90.5,0,21.9,0,51.8,0,19.5,0,19.7,0,21.4,0
2004/11/4,2:30,11.3,0,90.6,0,21.8,0,51.7,0,19.5,0,19.7,0,21.4,0
2004/11/4,2:45,11.2,0,91.2,0,21.7,0,51.7,0,19.4,0,19.8,0,21.4,0
2004/11/4,3:00,11.2,0,91.9,0,21.7,0,51.7,0,19.4,0,19.8,0,21.3,0
2004/11/4,3:15,11.2,0,92.5,0,21.6,0,51.6,0,19.4,0,19.9,0,21.2,0
2004/11/4,3:30,11.2,0,92.5,0,21.5,0,51.7,0,19.4,0,19.9,0,21.2,0
2004/11/4,3:45,11.1,0,92.3,0,21.5,0,51.7,0,19.3,0,19.9,0,21.1,0
2004/11/4,4:00,11,0,92.1,0,21.4,0,51.6,0,19.3,0,20,0,21,0
2004/11/4,4:15,11.1,0,91.6,0,21.4,0,51.7,0,19.3,0,20,0,21,0
2004/11/4,4:30,11.1,0,92.0,0,21.3,0,51.7,0,19.2,0,20.1,0,20.9,0
2004/11/4,4:45,10.7,0,91.9,0,21.2,0,51.5,0,19.2,0,20.1,0,20.9,0
2004/11/4,5:00,10.5,0,92.4,0,21.2,0,51.6,0,19.2,0,20.2,0,20.8,0
2004/11/4,5:15,10.3,0,92.5,0,21.2,0,51.4,0,19.1,0,20.2,0,20.8,0
2004/11/4,5:30,10.2,0,92.7,0,21.1,0,51.5,0,19.1,0,20.3,0,20.7,0
2004/11/4,5:45,10.4,0,92.7,0,21,0,51.6,0,19.1,0,20.3,0,20.6,0
2004/11/4,6:00,10.5,0,92.5,0,21.4,0,51.8,0,19.1,0,20.4,0,21.1,0
2004/11/4,6:15,10.6,0,93.7,0,21.9,0,51.2,0,19.9,0,20.4,0,21.8,0
2004/11/4,6:30,10.7,0,94.0,0,22.1,0,51.2,0,20.7,0,18.7,0,22.6,0
2004/11/4,6:45,10.8,0,93.8,0,22.3,0,51.2,0,21.3,0,18.8,0,23.9,0
2004/11/4,7:00,11.1,0,93.5,0,22.7,0,50.8,0,21.6,0,18.8,0,24.4,0
2004/11/4,7:15,11.3,0,92.3,0,23.2,0,49.7,0,21.1,0,18.9,0,24.9,0
2004/11/4,7:30,11.6,0,91.4,0,23.6,0,49,0,20.6,0,17.6,0,24.8,0
2004/11/4,7:45,11.6,0,91.8,0,23.1,0,49.4,0,20.3,0,17.9,0,24.1,0
2004/11/4,8:00,11.5,0,89.5,0,22.9,0,49.7,0,20,0,17.9,0,23.5,0
2004/11/4,8:15,12.2,0,88.3,0,22.7,0,50,0,19.8,0,18,0,23,0
2004/11/4,8:30,12.8,0,88.7,0,22.6,0,50.1,0,19.7,0,18,0,22.8,0
2004/11/4,8:45,13.6,0,77.5,0,22.5,0,50.2,0,19.5,0,18.1,0,22.7,0
2004/11/4,9:00,14.3,0,70.4,0,22.4,0,50.4,0,19.4,0,18.2,0,22.6,0
2004/11/4,9:15,14.4,0,67.7,0,22.3,0,50.4,0,19.4,0,18.2,0,22.5,0
2004/11/4,9:30,14.7,0,68.5,0,22.3,0,50.5,0,19.3,0,18.3,0,22.4,0
2004/11/4,9:45,14.7,0,67.3,0,22.2,0,50.5,0,19.2,0,18.3,0,22.3,0
2004/11/4,10:00,15.7,0,62.5,0,22.1,0,50.5,0,19.2,0,18.4,0,22.3,0
2004/11/4,10:15,16.2,0,56.9,0,22.2,0,50.7,0,19.2,0,18.4,0,22.4,0
2004/11/4,10:30,16,0,54.2,0,22.2,0,50.9,0,19.1,0,18.5,0,22.6,0
2004/11/4,10:45,15.7,0,54.5,0,22.2,0,51.1,0,19.1,0,18.5,0,22.6,0
2004/11/4,11:00,15.8,0,57.4,0,22.2,0,51.3,0,19.1,0,18.6,0,22.5,0
2004/11/4,11:15,16.7,0,56.5,0,22.2,0,51.3,0,19.1,0,18.6,0,22.5,0
2004/11/4,11:30,17,0,57.4,0,22.2,0,51.5,0,19.1,0,18.7,0,22.6,0
2004/11/4,11:45,15.9,0,66.7,0,22.3,0,51.7,0,19,0,18.8,0,22.8,0
2004/11/4,12:00,14.6,0,78.4,0,22.3,0,52,0,19,0,18.8,0,22.8,0
2004/11/4,12:15,15.3,0,70.9,0,22.4,0,52.2,0,19,0,18.9,0,22.9,0
2004/11/4,12:30,15.9,0,63.2,0,22.4,0,52.3,0,19,0,18.9,0,22.9,0
2004/11/4,12:45,15.7,0,62.4,0,22.5,0,52.4,0,19,0,19,0,22.9,0
2004/11/4,13:00,15.7,0,58.0,0,22.5,0,52.4,0,19,0,19,0,22.9,0
2004/11/4,13:15,15.6,0,56.6,0,22.5,0,52.3,0,19,0,19.1,0,22.9,0
2004/11/4,13:30,16.7,0,56.3,0,22.5,0,52.3,0,19,0,19.2,0,23,0
2004/11/4,13:45,16.5,0,53.1,0,22.6,0,52.1,0,19,0,19.2,0,23,0
2004/11/4,14:00,15.7,0,52.5,0,22.6,0,52.1,0,19.1,0,19.3,0,23.1,0
2004/11/4,14:15,15.3,0,57.7,0,22.6,0,52.1,0,19.1,0,19.3,0,23.1,0
2004/11/4,14:30,15.8,0,53.1,0,22.6,0,51.9,0,19.1,0,19.4,0,23,0
2004/11/4,14:45,15.5,0,53.2,0,22.7,0,51.7,0,19.1,0,19.4,0,23.1,0
2004/11/4,15:00,15.3,0,54.7,0,22.7,0,51.5,0,19.1,0,19.5,0,23.1,0
2004/11/4,15:15,15.1,0,55.3,0,22.7,0,51.3,0,19.1,0,19.5,0,23.1,0
2004/11/4,15:30,14.7,0,57.5,0,22.7,0,51.2,0,19.1,0,19.6,0,23.1,0
2004/11/4,15:45,14.1,0,65.0,0,22.7,0,51.1,0,19.1,0,19.6,0,23,0
2004/11/4,16:00,14.2,0,60.1,0,22.7,0,51,0,19.2,0,19.7,0,23,0
2004/11/4,16:15,13.9,0,62.1,0,22.7,0,51,0,19.3,0,19.7,0,22.9,0
2004/11/4,16:30,13.9,0,60.4,0,22.6,0,50.9,0,19.3,0,19.8,0,22.9,0
2004/11/4,16:45,14.1,0,57.9,0,22.6,0,50.8,0,19.2,0,19.8,0,22.8,0
2004/11/4,17:00,13.9,0,56.7,0,22.6,0,50.9,0,19.2,0,19.9,0,22.9,0
2004/11/4,17:15,13.7,0,58.2,0,22.7,0,50.8,0,19.1,0,19.9,0,22.9,0
2004/11/4,17:30,13.9,0,60.6,0,22.6,0,50.7,0,19.1,0,19.9,0,22.9,0
2004/11/4,17:45,13.9,0,58.9,0,22.6,0,50.7,0,19,0,18.3,0,23.4,0
2004/11/4,18:00,14,0,60.5,0,22.6,0,50.5,0,18.9,0,18.4,0,23.4,0
2004/11/4,18:15,13.2,0,68.3,0,22.5,0,50.6,0,18.9,0,18.4,0,23.1,0
2004/11/4,18:30,13.1,0,70.3,0,22.5,0,50,0,18.8,0,18.5,0,23,0
2004/11/4,18:45,12.7,0,73.0,0,22.6,0,50.7,0,18.8,0,18.5,0,23.2,0
2004/11/4,19:00,13.1,0,70.6,0,23.2,0,49.7,0,19.5,0,18.6,0,23.4,0
2004/11/4,19:15,13.5,0,68.1,0,23.7,0,48.7,0,20.5,0,18.6,0,23.8,0
2004/11/4,19:30,13.7,0,65.6,0,24,0,48.3,0,21.4,0,18.7,0,24,0
2004/11/4,19:45,13.9,0,59.7,0,24.1,0,48.5,0,21.9,0,18.8,0,24.2,0
2004/11/4,20:00,13.9,0,59.5,0,24.3,0,48.2,0,22.3,0,18.8,0,24.2,0
2004/11/4,20:15,13.8,0,59.3,0,24.4,0,48,0,22.6,0,18.9,0,24.3,0